Wind_Speed
32 28 20 18 16 15 14 11 11 10 9 7 3 1 2 4 1 11 12 17 17 20 24 27 28 29 32 28 29 37 40 41 41 45 46 49 48 46 51 54 51 54 51 44
30 26 18 17 20 14 12 10 9 7 7 8 7 8 4 9 9 6 11 17 16 11 9 11 20 27 32 37 37 36 34 35 39 43 41 37 48 48 49 54 57 57 54 50
29 26 21 18 20 15 10 10 6 5 10 10 8 5 5 3 2 2 2 6 6 4 7 8 10 13 15 19 33 39 45 40 41 42 53 49 48 48 44 52 58 60 56 53
26 27 25 18 18 14 11 6 7 10 11 10 9 9 8 8 8 7 7 5 7 6 8 14 17 17 16 16 24 33 40 51 50 48 51 55 58 54 51 51 59 64 62 58
26 26 27 19 17 17 10 8 8 8 8 9 12 11 12 11 11 11 7 9 9 9 10 16 19 21 20 23 26 32 34 41 46 56 54 56 59 62 61 60 55 63 65 67
26 27 24 20 17 18 10 10 13 14 11 12 13 13 14 15 16 15 16 17 19 19 17 16 15 17 24 27 27 27 25 28 28 40 47 56 63 59 61 62 60 60 63 64
26 27 24 19 17 18 14 15 13 10 7 11 13 16 17 18 18 16 14 15 17 17 16 15 14 16 20 23 24 22 16 18 25 27 30 40 54 59 62 63 66 61 66 64
26 25 25 19 18 17 18 16 11 13 13 14 14 14 18 17 16 18 16 13 14 10 9 13 16 20 21 16 18 20 20 16 20 33 32 33 36 51 58 67 67 64 69 69
25 25 24 21 18 18 18 16 16 15 15 13 13 17 19 19 21 13 15 17 10 9 10 11 15 13 12 12 17 20 21 24 23 22 25 30 23 30 39 54 72 69 71 73
24 24 24 22 19 18 15 16 17 18 16 14 16 19 19 20 20 16 16 17 15 13 10 10 9 8 10 10 11 13 17 17 20 23 25 19 33 36 43 49 66 69 77 79
23 24 22 20 17 15 15 15 18 18 18 17 16 19 18 17 18 19 17 15 16 15 12 11 11 10 10 11 10 11 12 15 18 19 20 24 25 32 44 46 51 64 69 76
22 22 21 20 16 15 17 16 17 18 17 18 17 19 18 18 19 22 22 22 18 17 15 15 16 17 17 16 14 13 14 16 15 19 21 27 25 26 34 42 48 55 63 69
20 20 20 19 17 15 15 15 16 17 17 16 14 11 13 14 15 16 18 19 21 18 19 19 20 20 22 22 22 16 14 15 16 16 20 19 23 26 34 37 39 41 51 64
18 18 19 19 17 15 15 16 16 16 16 15 13 12 14 14 14 15 17 19 21 21 22 21 20 20 21 21 22 25 25 18 14 16 19 18 20 21 27 33 34 36 39 46
15 17 17 18 17 16 14 15 16 16 15 14 12 11 10 12 11 12 13 15 16 17 19 23 23 22 21 21 20 21 23 25 25 19 14 12 14 17 22 26 25 27 33 36
15 16 16 16 17 16 15 15 14 15 15 16 16 14 15 11 19 16 15 14 15 16 19 20 21 20 21 23 22 21 22 24 27 27 26 17 12 10 14 19 20 18 21 28
16 17 18 17 16 15 15 15 14 15 15 15 15 18 20 20 22 21 19 21 22 21 18 21 24 23 20 19 24 23 22 22 23 26 27 30 18 14 10 14 14 11 12 11
13 18 19 18 19 18 16 16 16 15 16 18 19 20 17 20 21 24 24 21 27 26 22 22 21 23 23 22 22 25 27 25 23 25 26 27 31 22 14 8 13 13 10 12
12 17 20 19 21 19 18 17 17 17 17 19 20 15 19 19 20 16 22 30 26 26 27 18 20 22 25 21 21 28 29 31 29 26 25 24 24 30 21 11 10 16 15 11
10 15 17 19 19 20 19 19 20 22 21 20 16 17 11 39 22 25 35 33 22 20 21 17 18 20 19 18 21 28 30 30 31 30 26 24 23 22 27 18 9 10 18 17
8 13 16 15 17 19 18 18 29 30 21 21 35 31 36 38 36 43 44 37 27 20 20 13 13 15 19 21 25 29 28 29 28 30 27 24 21 21 21 23 22 7 3 19
8 12 14 14 17 20 22 18 31 20 33 31 32 30 34 40 43 38 33 33 28 22 19 10 11 17 20 26 28 30 30 29 25 25 25 25 20 18 19 19 21 21 6 5
8 12 12 15 17 21 24 26 30 26 35 33 31 28 34 32 31 28 27 25 17 12 12 14 18 14 29 29 29 29 31 29 23 21 23 24 24 20 17 16 16 17 20 9
8 12 12 16 18 16 21 22 32 28 31 34 35 29 42 32 26 26 26 21 17 18 17 21 21 26 27 27 27 29 27 26 21 23 20 23 25 20 18 15 14 13 14 18
9 12 13 17 20 20 16 21 27 32 33 30 32 35 29 26 25 27 27 25 22 21 21 22 25 25 25 26 25 26 28 25 26 23 22 21 23 22 16 16 14 13 12 11
10 12 14 16 21 28 28 29 23 32 32 30 35 31 30 28 27 27 26 26 23 23 25 23 21 25 27 24 24 26 27 26 24 23 23 22 22 23 20 13 14 11 10 10
10 13 13 17 21 19 28 17 26 30 33 31 32 30 30 30 27 25 24 24 21 23 27 26 18 19 25 27 27 26 26 26 26 26 26 25 22 22 23 16 12 13 8 10
Wind_Direction
342 345 347 352 347 352 0 15 17 40 44 34 44 167 216 274 227 208 229 242 242 236 234 249 261 257 261 270 266 253 241 237 218 221 224 228 221 222 220 226 227 233 234 225
349 350 351 348 345 336 333 349 5 19 17 350 332 306 308 265 268 265 237 250 255 251 238 245 252 261 270 274 263 257 249 238 235 218 219 221 227 220 220 223 225 227 228 221
358 356 350 346 350 343 334 335 347 20 356 347 345 349 0 4 351 353 296 195 205 229 281 275 277 280 296 288 277 262 255 244 237 220 215 217 224 228 218 215 222 223 222 221
349 358 351 342 350 349 346 332 343 0 354 352 346 343 348 347 337 336 337 306 291 285 330 314 285 272 274 292 298 289 265 248 239 227 225 228 224 227 227 221 219 224 221 219
348 348 349 347 350 346 341 318 306 329 319 327 335 334 335 324 310 302 290 274 265 294 303 317 291 275 278 285 298 296 281 260 250 234 231 226 228 231 231 231 222 225 224 220
353 350 353 358 359 356 344 330 315 316 318 319 319 331 331 330 328 322 298 282 283 287 295 305 294 277 269 274 285 293 293 266 264 248 243 233 228 226 233 238 232 226 227 223
354 354 357 358 1 1 7 350 343 346 331 328 332 333 334 338 343 343 333 317 298 279 292 297 289 290 290 271 275 279 304 263 246 246 250 245 226 227 227 229 235 232 228 223
351 352 356 1 5 9 6 3 352 343 338 338 340 345 349 343 345 343 341 335 331 288 301 306 297 299 295 274 262 267 275 273 263 258 264 248 230 226 229 229 226 233 238 233
358 0 0 3 6 8 5 2 6 2 1 4 9 357 355 358 355 350 0 2 352 334 352 345 302 302 298 291 283 285 279 278 281 280 268 251 223 234 233 232 230 224 231 238
1 1 5 9 5 6 18 18 18 14 14 8 4 2 3 4 6 1 5 12 5 3 2 329 326 327 325 318 314 292 276 267 270 272 270 262 230 233 239 240 228 228 231 236
1 3 6 9 13 19 13 7 10 11 6 3 0 1 3 12 17 19 23 19 17 17 7 4 9 357 354 346 332 314 303 277 264 263 265 267 256 239 243 245 237 234 232 234
1 3 5 6 8 2 1 0 359 0 0 3 359 355 354 9 18 23 28 29 22 19 18 16 16 13 9 358 358 344 310 299 285 270 265 262 266 252 246 246 241 238 237 234
2 3 6 6 3 0 2 1 359 355 357 5 356 337 353 6 10 17 21 23 33 25 29 27 27 21 22 23 16 3 346 326 296 286 287 283 274 261 244 247 249 242 239 237
4 4 4 6 5 0 0 358 357 357 0 0 359 3 0 3 8 16 14 16 18 21 18 18 17 16 20 20 17 20 13 354 336 292 282 282 279 268 259 253 251 248 242 238
1 2 1 4 6 4 2 2 359 356 356 353 355 355 0 347 1 9 5 3 5 7 11 12 11 9 15 20 18 10 5 4 4 349 332 300 273 268 265 264 258 255 247 239
2 358 356 359 3 3 358 356 348 346 348 349 338 334 343 300 356 352 347 342 341 342 348 358 2 1 3 3 12 3 1 356 355 352 358 353 335 293 275 271 270 260 245 249
4 0 355 351 348 351 352 355 357 355 353 353 351 346 345 347 336 335 330 329 325 318 324 326 339 351 350 349 352 360 354 354 351 345 350 351 358 348 287 273 265 253 234 247
350 357 357 353 349 349 342 336 339 343 346 345 347 348 343 343 344 343 341 333 324 317 301 308 320 330 336 334 345 351 351 348 351 346 345 344 348 0 348 281 244 238 237 235
351 354 359 357 356 356 350 340 334 332 333 335 332 336 344 338 320 347 337 329 319 320 312 299 310 321 329 332 333 343 348 344 341 336 336 343 349 344 357 353 254 226 227 222
0 2 5 7 5 5 1 356 348 336 330 322 314 302 328 344 331 318 330 332 329 336 308 301 315 322 323 323 328 333 335 338 333 328 330 332 336 342 341 356 353 248 226 230
9 6 7 9 9 359 355 0 10 345 344 348 332 343 327 333 342 343 318 353 328 310 317 296 313 325 320 323 330 333 330 334 332 319 322 323 329 334 338 340 346 13 204 228
357 356 357 0 8 7 12 8 10 355 356 345 337 338 331 331 328 334 343 337 331 309 310 275 268 329 326 325 328 326 322 326 331 324 329 329 324 325 328 334 336 340 30 139
345 344 347 358 359 7 8 351 358 356 345 337 335 338 343 338 338 342 344 354 336 327 326 320 352 317 319 323 328 328 319 323 327 324 330 332 334 331 314 320 326 331 334 355
326 334 331 338 349 342 352 349 348 350 345 356 358 331 343 346 344 350 349 352 350 324 331 317 318 316 321 320 325 325 330 327 323 317 323 325 325 327 316 306 306 318 324 326
304 318 323 329 338 343 335 334 347 356 353 353 344 339 344 345 343 346 350 351 348 341 334 330 320 321 317 317 318 319 321 323 318 322 323 319 313 316 325 312 310 308 319 324
305 309 314 316 329 344 346 346 342 352 355 348 349 342 347 348 346 348 342 346 340 333 334 331 329 325 323 322 322 320 319 319 320 320 327 328 323 315 314 323 310 307 301 300
303 309 310 318 325 346 355 335 347 355 355 350 349 350 345 343 345 344 340 343 344 337 336 330 318 333 330 323 320 316 312 312 315 319 323 320 317 313 311 308 312 305 307 284
Height
5762 5756 5751 5747 5744 5740 5737 5733 5731 5727 5725 5725 5724 5723 5722 5721 5722 5723 5723 5724 5725 5726 5730 5731 5732 5731 5729 5736 5738 5740 5747 5752 5758 5761 5764 5767 5771 5780 5786 5789 5800 5806 5809 5828
5760 5754 5749 5746 5742 5739 5736 5734 5732 5729 5727 5726 5724 5722 5721 5720 5719 5719 5720 5719 5721 5722 5725 5727 5727 5726 5727 5724 5728 5730 5736 5742 5747 5758 5761 5760 5760 5766 5776 5781 5788 5793 5797 5819
5759 5753 5749 5745 5741 5737 5736 5733 5732 5730 5727 5725 5723 5720 5719 5718 5717 5717 5717 5717 5718 5720 5721 5720 5720 5720 5721 5718 5714 5719 5720 5728 5735 5744 5743 5740 5746 5750 5758 5765 5773 5782 5786 5805
5759 5752 5747 5743 5740 5736 5734 5732 5730 5728 5726 5724 5722 5720 5718 5716 5715 5715 5715 5716 5715 5715 5714 5713 5712 5712 5712 5711 5709 5706 5707 5708 5716 5724 5728 5732 5737 5738 5745 5753 5761 5767 5782 5791
5757 5751 5746 5741 5738 5735 5733 5731 5729 5727 5725 5723 5721 5718 5716 5715 5713 5712 5712 5711 5710 5709 5707 5707 5704 5702 5702 5702 5701 5697 5694 5693 5696 5704 5709 5717 5720 5728 5732 5740 5752 5755 5763 5776
5756 5750 5745 5739 5736 5733 5731 5730 5728 5726 5724 5721 5719 5717 5714 5712 5710 5709 5707 5705 5703 5702 5702 5699 5697 5695 5694 5693 5692 5689 5685 5683 5684 5689 5690 5695 5701 5718 5725 5730 5738 5743 5748 5758
5755 5750 5744 5739 5735 5733 5730 5727 5724 5722 5721 5719 5717 5714 5712 5709 5707 5705 5701 5698 5696 5695 5694 5692 5691 5689 5686 5684 5684 5682 5678 5677 5676 5678 5677 5676 5701 5699 5706 5711 5719 5730 5729 5737
5755 5749 5743 5738 5734 5732 5729 5727 5726 5722 5719 5717 5715 5713 5710 5708 5705 5701 5697 5693 5691 5689 5688 5686 5684 5682 5679 5677 5676 5673 5671 5671 5670 5667 5668 5673 5677 5689 5695 5695 5704 5714 5713 5714
5755 5749 5744 5738 5735 5732 5730 5727 5724 5721 5718 5716 5713 5712 5709 5704 5700 5698 5694 5690 5687 5686 5683 5682 5680 5677 5674 5672 5670 5668 5667 5665 5664 5662 5661 5664 5680 5675 5672 5669 5681 5698 5691 5700
5755 5749 5745 5739 5736 5733 5730 5728 5725 5722 5719 5716 5713 5710 5707 5703 5699 5695 5692 5689 5686 5683 5681 5680 5677 5674 5671 5668 5666 5663 5661 5659 5658 5656 5654 5655 5654 5660 5659 5661 5677 5678 5682 5687
5755 5750 5745 5741 5737 5735 5732 5729 5726 5723 5719 5716 5713 5710 5708 5704 5700 5695 5692 5689 5685 5682 5680 5678 5675 5671 5667 5664 5661 5658 5656 5655 5653 5650 5649 5648 5647 5651 5647 5653 5662 5664 5670 5674
5755 5750 5746 5741 5738 5736 5732 5729 5727 5724 5720 5717 5713 5710 5707 5704 5700 5696 5692 5689 5684 5682 5679 5676 5673 5669 5664 5661 5658 5655 5652 5650 5648 5646 5645 5640 5640 5640 5640 5639 5645 5647 5648 5658
5755 5751 5747 5742 5738 5735 5732 5729 5727 5724 5721 5717 5714 5712 5709 5704 5701 5697 5693 5690 5686 5684 5680 5676 5672 5669 5665 5660 5656 5653 5649 5645 5642 5641 5638 5635 5633 5631 5630 5629 5628 5630 5634 5639
5755 5751 5747 5742 5738 5735 5732 5729 5727 5724 5720 5717 5714 5710 5708 5704 5700 5696 5693 5690 5687 5684 5680 5677 5673 5669 5665 5661 5657 5652 5649 5644 5639 5635 5632 5631 5627 5625 5622 5621 5620 5620 5620 5622
5754 5751 5747 5743 5739 5735 5732 5729 5726 5723 5721 5717 5713 5710 5708 5704 5700 5696 5691 5689 5687 5683 5680 5676 5672 5668 5665 5661 5657 5652 5648 5643 5639 5633 5628 5624 5622 5618 5615 5612 5609 5606 5604 5606
5754 5751 5747 5743 5739 5735 5732 5729 5726 5722 5719 5715 5712 5709 5707 5703 5700 5695 5691 5688 5685 5681 5677 5673 5671 5668 5664 5660 5656 5651 5646 5642 5636 5632 5625 5620 5615 5610 5607 5604 5601 5597 5595 5595
5753 5750 5746 5743 5739 5735 5732 5729 5726 5722 5718 5714 5709 5705 5701 5699 5696 5692 5689 5686 5683 5679 5675 5671 5668 5665 5661 5657 5653 5649 5644 5639 5635 5628 5623 5618 5612 5606 5602 5598 5596 5593 5591 5592
5752 5749 5745 5742 5738 5733 5730 5727 5723 5719 5716 5711 5708 5703 5699 5694 5690 5687 5685 5684 5679 5675 5671 5667 5664 5662 5658 5654 5650 5645 5640 5638 5632 5626 5620 5617 5610 5605 5599 5595 5593 5592 5591 5592
5751 5748 5744 5741 5736 5731 5727 5723 5720 5715 5712 5708 5703 5698 5694 5692 5688 5682 5682 5678 5674 5669 5665 5662 5659 5655 5653 5649 5646 5642 5638 5633 5628 5624 5620 5614 5609 5603 5599 5594 5592 5590 5590 5592
5750 5747 5744 5739 5735 5730 5728 5725 5720 5714 5709 5704 5698 5694 5687 5687 5684 5679 5673 5668 5667 5663 5660 5657 5654 5652 5649 5647 5644 5640 5634 5631 5627 5620 5616 5613 5609 5604 5600 5593 5591 5588 5589 5590
5749 5747 5743 5740 5735 5731 5727 5724 5718 5703 5703 5702 5698 5697 5694 5687 5668 5670 5666 5662 5660 5656 5655 5651 5649 5648 5645 5642 5639 5636 5632 5627 5623 5618 5612 5610 5608 5603 5599 5595 5590 5588 5586 5587
5747 5745 5743 5739 5735 5730 5727 5723 5719 5715 5714 5707 5700 5696 5690 5684 5678 5672 5667 5660 5656 5653 5650 5647 5643 5643 5640 5638 5634 5629 5625 5623 5617 5614 5609 5605 5604 5602 5598 5594 5590 5587 5586 5584
5746 5744 5741 5739 5735 5731 5726 5721 5718 5714 5710 5702 5696 5693 5687 5682 5675 5669 5664 5659 5655 5651 5646 5644 5643 5638 5635 5631 5627 5625 5620 5617 5612 5610 5606 5602 5599 5598 5597 5594 5590 5588 5585 5582
5744 5742 5740 5737 5734 5729 5725 5721 5717 5711 5707 5698 5692 5690 5681 5676 5672 5666 5662 5658 5654 5650 5647 5645 5641 5637 5632 5626 5622 5617 5616 5611 5610 5606 5604 5600 5596 5595 5592 5592 5590 5588 5586 5582
5741 5740 5737 5734 5730 5725 5720 5719 5714 5708 5702 5696 5692 5686 5681 5675 5670 5664 5659 5655 5651 5648 5646 5642 5636 5633 5628 5623 5619 5613 5609 5608 5604 5600 5598 5597 5594 5590 5590 5586 5585 5584 5584 5583
5738 5737 5735 5731 5728 5723 5717 5718 5717 5708 5701 5695 5690 5684 5677 5672 5666 5661 5656 5652 5648 5644 5641 5637 5632 5629 5624 5619 5616 5612 5606 5602 5600 5597 5593 5591 5589 5585 5585 5586 5584 5582 5582 5583
5736 5734 5732 5729 5725 5724 5719 5713 5712 5705 5699 5693 5687 5680 5674 5668 5663 5659 5654 5650 5646 5641 5636 5633 5628 5624 5620 5616 5612 5608 5604 5599 5595 5591 5588 5585 5585 5581 5578 5582 5582 5581 5582 5581